Change the Weather History Date:

Monday, October 29, 2012

  Actual Average Record
Temperature  
Mean Temperature 52 °F -  
Max Temperature 73 °F 57 °F 82 °F (2003)
Min Temperature 32 °F 29 °F 12 °F (1991)
Degree Days  
Heating Degree Days 12    
Growing Degree Days 2 (Base 50)    
Moisture  
Dew Point 36 °F    
Average Humidity 69    
Maximum Humidity 95    
Minimum Humidity 28    
Precipitation  
Precipitation 0.00 in - - ()
Sea Level Pressure  
Sea Level Pressure 30.03 in    
Wind  
Wind Speed 5 mph (WSW)    
Max Wind Speed 9 mph    
Max Gust Speed 16 mph    
Visibility 10 miles    
Events      
Averages and records for this station are not official NWS values.
T = Trace of Precipitation, MM = Missing Value Source: NWS Daily Summary

Daily Weather History Graph

Daily Weather History Graph

Search for Another Location

Airport or City:

Trip Planner

Search our weather history database for the weather conditions in past years. The results will help you decide how hot, cold, wet, or windy it might be!

Date:

Astronomy

Oct. 29, 2012 Rise Set
Actual Time 7:15 AM MDT 5:45 PM MDT
Civil Twilight 6:46 AM MDT 6:14 PM MDT
Nautical Twilight 6:14 AM MDT 6:46 PM MDT
Astronomical Twilight 5:42 AM MDT 7:18 PM MDT
Moon 5:38 PM MDT (10/29) 7:07 AM MDT (10/29)
Length of Visible Light 11h 27m
Length of Day
10h 30m
Full, 100% of the Moon is Illuminated
Oct 29
Full
Oct 29
Full
Nov 6
Last Quarter
Nov 13
New
Nov 20
First Quarter

Hourly Weather History & Observations

Time (MDT) Temp. Windchill Dew Point Humidity Pressure Visibility Wind Dir Wind Speed Gust Speed Precip Events Conditions
12:15 AM 32.0 °F 28.7 °F 28.8 °F 88% 30.04 in 10.0 mi SW 3.5 mph - N/A   Clear
12:35 AM 32.2 °F 27.7 °F 29.5 °F 90% 30.04 in 10.0 mi WSW 4.6 mph - N/A   Clear
12:55 AM 32.5 °F - 30.0 °F 90% 30.04 in 10.0 mi Calm Calm - N/A   Clear
1:15 AM 33.1 °F 30.0 °F 30.4 °F 90% 30.04 in 10.0 mi West 3.5 mph - N/A   Clear
1:35 AM 33.6 °F 30.6 °F 31.6 °F 92% 30.03 in 10.0 mi WNW 3.5 mph - N/A   Clear
1:55 AM 35.1 °F 30.1 °F 31.6 °F 87% 30.04 in 10.0 mi West 5.8 mph - N/A   Clear
2:15 AM 33.8 °F 29.6 °F 31.1 °F 90% 30.04 in 10.0 mi West 4.6 mph - N/A   Clear
2:35 AM 32.5 °F 28.1 °F 30.4 °F 92% 30.04 in 10.0 mi West 4.6 mph - N/A   Clear
2:55 AM 32.5 °F 26.2 °F 30.6 °F 92% 30.05 in 10.0 mi West 6.9 mph - N/A   Clear
3:15 AM 32.9 °F 28.5 °F 31.1 °F 93% 30.05 in 10.0 mi West 4.6 mph - N/A   Clear
3:35 AM 32.5 °F 26.2 °F 30.7 °F 93% 30.05 in 10.0 mi WSW 6.9 mph - N/A   Clear
3:55 AM 32.4 °F 27.9 °F 31.1 °F 95% 30.04 in 10.0 mi West 4.6 mph - N/A   Clear
4:15 AM 32.2 °F 26.7 °F 30.7 °F 94% 30.04 in 10.0 mi West 5.8 mph - N/A   Clear
4:55 AM 32.9 °F 29.8 °F 31.1 °F 93% 30.05 in 10.0 mi WNW 3.5 mph - N/A   Clear
5:15 AM 32.9 °F 26.7 °F 31.5 °F 94% 30.05 in 10.0 mi WSW 6.9 mph - N/A   Clear
5:35 AM 34.3 °F 29.2 °F 32.0 °F 91% 30.05 in 10.0 mi WSW 5.8 mph - N/A   Clear
5:55 AM 35.4 °F 29.7 °F 32.5 °F 89% 30.05 in 10.0 mi West 6.9 mph - N/A   Clear
6:15 AM 34.9 °F 29.0 °F 32.4 °F 91% 30.05 in 10.0 mi West 6.9 mph - N/A   Clear
6:35 AM 34.9 °F 32.0 °F 32.2 °F 90% 30.06 in 10.0 mi West 3.5 mph - N/A   Clear
6:55 AM 34.5 °F - 32.0 °F 90% 30.06 in 10.0 mi Calm Calm - N/A   Clear
7:15 AM 34.0 °F - 31.8 °F 92% 30.06 in 10.0 mi Calm Calm - N/A   Clear
7:35 AM 34.7 °F 31.8 °F 32.0 °F 90% 30.07 in 10.0 mi West 3.5 mph - N/A   Clear
7:55 AM 34.9 °F 30.8 °F 32.5 °F 91% 30.07 in 10.0 mi West 4.6 mph - N/A   Clear
8:35 AM 39.4 °F 34.5 °F 35.4 °F 86% 30.07 in 10.0 mi WSW 6.9 mph - N/A   Clear
8:55 AM 40.1 °F 36.9 °F 35.8 °F 85% 30.08 in 10.0 mi WSW 4.6 mph - N/A   Clear
9:15 AM 41.9 °F 38.2 °F 36.7 °F 82% 30.08 in 10.0 mi WSW 5.8 mph - N/A   Clear
9:35 AM 44.8 °F 42.4 °F 38.1 °F 77% 30.08 in 10.0 mi West 4.6 mph - N/A   Clear
9:55 AM 46.8 °F - 38.1 °F 72% 30.08 in 10.0 mi West 5.8 mph - N/A   Clear
10:15 AM 49.6 °F - 38.7 °F 66% 30.07 in 10.0 mi SW 5.8 mph - N/A   Clear
10:35 AM 51.8 °F - 38.8 °F 61% 30.07 in 10.0 mi West 5.8 mph - N/A   Clear
10:55 AM 54.5 °F - 40.1 °F 58% 30.07 in 10.0 mi WSW 6.9 mph - N/A   Clear
11:35 AM 60.1 °F - 41.2 °F 50% 30.06 in 10.0 mi WSW 5.8 mph - N/A   Clear
11:55 AM 62.2 °F - 41.7 °F 47% 30.05 in 10.0 mi WSW 6.9 mph - N/A   Clear
12:15 PM 65.1 °F - 41.2 °F 42% 30.04 in 10.0 mi WSW 8.1 mph - N/A   Clear
12:35 PM 66.9 °F - 40.5 °F 38% 30.03 in 10.0 mi West 4.6 mph - N/A   Clear
12:55 PM 68.9 °F - 39.2 °F 34% 30.02 in 10.0 mi WSW 6.9 mph - N/A   Clear
1:15 PM 69.8 °F - 39.4 °F 33% 30.01 in 10.0 mi WSW 9.2 mph - N/A   Clear
1:35 PM 70.5 °F - 39.0 °F 32% 30.01 in 10.0 mi WSW 6.9 mph - N/A   Clear
2:15 PM 70.9 °F - 38.5 °F 31% 29.99 in 10.0 mi WSW 5.8 mph - N/A   Clear
2:35 PM 72.7 °F - 38.3 °F 29% 29.99 in 10.0 mi West 6.9 mph - N/A   Clear
2:55 PM 73.2 °F - 37.8 °F 28% 29.99 in 10.0 mi West 8.1 mph - N/A   Clear
3:15 PM 73.4 °F - 38.1 °F 28% 29.99 in 10.0 mi West 6.9 mph 16.1 mph N/A   Clear
3:35 PM 72.0 °F - 38.3 °F 29% 29.98 in 10.0 mi West 6.9 mph - N/A   Clear
3:55 PM 71.1 °F - 38.8 °F 31% 29.98 in 10.0 mi West 5.8 mph - N/A   Clear
4:15 PM 70.9 °F - 38.7 °F 31% 29.98 in 10.0 mi WSW 4.6 mph - N/A   Clear
4:35 PM 68.4 °F - 39.2 °F 34% 29.98 in 10.0 mi WSW 4.6 mph - N/A   Clear
4:55 PM 66.6 °F - 39.2 °F 37% 29.98 in 10.0 mi WSW 3.5 mph - N/A   Clear
5:15 PM 64.8 °F - 41.0 °F 42% 29.98 in 10.0 mi Calm Calm - N/A   Clear
5:35 PM 63.3 °F - 41.4 °F 45% 29.97 in 10.0 mi Calm Calm - N/A   Clear
5:55 PM 63.1 °F - 40.3 °F 43% 29.98 in 10.0 mi Calm Calm - N/A   Clear
6:15 PM 57.9 °F - 41.5 °F 54% 29.99 in 10.0 mi Calm Calm - N/A   Clear
6:35 PM 55.4 °F - 41.0 °F 58% 29.99 in 10.0 mi Calm Calm - N/A   Clear
6:55 PM 53.6 °F - 40.5 °F 61% 29.99 in 10.0 mi Calm Calm - N/A   Clear
9:35 PM 43.5 °F 39.4 °F 37.8 °F 80% 30.00 in 10.0 mi West 6.9 mph - N/A   Clear
9:55 PM 44.1 °F 41.5 °F 38.3 °F 80% 30.00 in 10.0 mi West 4.6 mph - N/A   Clear
10:15 PM 41.9 °F 39.0 °F 37.2 °F 83% 29.99 in 10.0 mi WSW 4.6 mph - N/A   Clear
10:35 PM 41.2 °F 37.3 °F 37.4 °F 86% 29.99 in 10.0 mi WSW 5.8 mph - N/A   Clear
10:55 PM 40.5 °F 36.5 °F 36.5 °F 86% 29.99 in 10.0 mi WSW 5.8 mph - N/A   Clear
11:15 PM 40.3 °F 38.2 °F 36.5 °F 86% 29.99 in 10.0 mi WSW 3.5 mph - N/A   Clear
11:35 PM 41.0 °F 37.1 °F 36.9 °F 85% 29.99 in 10.0 mi West 5.8 mph - N/A   Clear
11:55 PM 40.3 °F 35.5 °F 36.3 °F 86% 29.99 in 10.0 mi West 6.9 mph - N/A   Clear